Location: Newark
(46.9000°N, 28.3500°E)
Time: 05:53:29
(UTC+00:00)

Explorer 7 - Pass Details

Date: 31 August 2019
Orbit: 485 x 680 km, 50.3° (Epoch: 21 September)

Event Time Altitude Azimuth Distance (km) Brightness Sun altitude
Rises 06:53:32 0° 272° (W) 3,028 10.1 34.0°
Reaches altitude 10° 06:55:59 10° 276° (W) 2,103 9.4 34.4°
Maximum altitude 07:00:47 57° 355° (N) 773 7.8 35.1°
Drops below altitude 10° 07:05:24 10° 75° (ENE) 2,021 10.4 35.8°
Sets 07:07:42 0° 80° (E) 2,899 11.1 36.1°
